Regional Weather Roundup
Issued by NWS

Home | Current Version | Previous Version | Text Only | Print | Product List | Glossary On
Versions: 1 2 3 4 5 6 7 8 9 10 11 12 13 14 15 16 17 18 19 20 21 22 23 24 25 26 27 28 29 30 31 32 33 34 35 36 37 38 39 40 41 42 43 44 45 46 47 48 49 50
000
ASUS44 KOUN 241010
RWROK

WEATHER ROUNDUP FOR OKLAHOMA
NATIONAL WEATHER SERVICE NORMAN OK
500 AM CDT THU APR 24 2014

NOTE: "FAIR" INDICATES FEW OR NO CLOUDS BELOW 12,000 FEET WITH NO
      SIGNIFICANT WEATHER AND/OR OBSTRUCTIONS TO VISIBILITY.

OKZ001>007-009>012-014-015-017-241100-
NORTHWEST OKLAHOMA AND THE PANHANDLE

CITY           SKY/WX    TMP DP  RH WIND       PRES   REMARKS
GAGE           CLOUDY    57  48  72 N23G41    29.73R
ENID/VANCE AFB CLEAR     66  66 100 S22G33    29.57R
$$

OKZ016-021>023-033>039-044-045-241100-
SOUTHWEST OKLAHOMA

CITY           SKY/WX    TMP DP  RH WIND       PRES   REMARKS
LAWTON/REGL    PTCLDY    68  62  81 SE18G26   29.63F
LAWTON/FT SILL CLEAR     67  62  83 SE15G24   29.64S
FREDERICK      CLEAR     67  62  84 S14G23    29.60S
CLINTON        CLEAR     64  60  87 SW16      29.63R
HOBART         CLEAR     65  61  87 S18G31    29.62R
ALTUS AFB      CLEAR     67  63  86 S13       29.62R
$$

OKZ018>020-024>031-241100-
CENTRAL OKLAHOMA

CITY           SKY/WX    TMP DP  RH WIND       PRES   REMARKS
OKLAHOMA CITY  PTCLDY    65  59  81 S20G26    29.64F
OKC/WILEY POST CLEAR     66  58  75 S28G36    29.63F
OKC/TINKER AFB CLEAR     66  61  84 S23G29    29.65F
STILLWATER     PTCLDY    68  59  73 S20G33    29.61S
GUTHRIE        CLEAR     69  60  73 S20G30    29.60F
$$

OKZ008-013-054>072-241100-
NORTHEAST OKLAHOMA

CITY           SKY/WX    TMP DP  RH WIND       PRES   REMARKS
TULSA          CLOUDY    68  59  73 S16G25    29.65R
TULSA/JONES    CLOUDY    69  60  73 S10       29.65R
PONCA CITY     PTCLDY    68  58  70 S16G24    29.60R
BARTLESVILLE   CLOUDY    69  56  62 S15G30    29.64R
MUSKOGEE       CLOUDY    65  58  78 SE24G35   29.63F
$$

OKZ032-040>043-046>053-073>077-241100-
SOUTH CENTRAL/SOUTHEAST OKLAHOMA

CITY           SKY/WX    TMP DP  RH WIND       PRES   REMARKS
ARDMORE/DWNTWN   N/A     64  63  94 S8        29.71F
MCALESTER      CLOUDY    67  61  81 S13G23    29.73S
$$




USA.gov is the U.S. government's official web portal to all federal, state and local government web resources and services.